www.pogodaiklimat.ru
ПОГОДА в Сересе
Время
(UTC), дата
09 22.03
12 22.03
15 22.03
18 22.03
21 22.03
00 23.03
03 23.03
06 23.03
09 23.03
12 23.03
15 23.03
18 23.03
21 23.03
00 24.03
03 24.03
06 24.03
09 24.03
12 24.03
15 24.03
18 24.03
21 24.03
00 25.03
03 25.03
06 25.03
09 25.03
12 25.03
15 25.03
18 25.03
21 25.03
00 26.03
03 26.03
06 26.03
09 26.03
12 26.03
15 26.03
18 26.03
21 26.03
00 27.03
03 27.03
06 27.03
09 27.03
12 27.03
15 27.03
18 27.03
21 27.03
00 28.03
03 28.03
06 28.03
09 28.03
12 28.03
15 28.03
18 28.03
21 28.03
00 29.03
03 29.03
Ветер
(напр.,м/с)
Видим. Явления Облачность Т
(С)
Тd
(С)
f
(%)
Тe
(С)
Тes
(С)
Комфортность P
(гПа)
Po
(гПа)
Тmin
(С)
Tmax
(С)
R
(мм)
R24
(мм)
S
(см)
СВ 2 6000 м дым ясно +14.4 +12.6 89 +14 +14 1012.9 1002.6
СВ 3 15 км ясно +21.2 +14.5 66 +24 +27 комфорт 1014.4 1004.1 +13.5 +21.2
С 4 15 км ясно +30.3 +12.1 33 +31 +41 жарко 1014.5 1004.4
СВ 4 8000 м дым ясно +32.2 +10.7 27 +32 +40 жарко 1013.0 1002.9
СВ 4 8000 м дым ясно +31.2 +11.8 30 +32 +32 жарко 1011.7 1001.6
В 3 8000 м дым ясно +23.6 +14.2 56 +26 +26 жарко 1013.6 1003.4 +21.2 +33.0
СВ 2 8000 м дым ясно +18.5 +16.2 86 +20 +20 1014.5 1004.4
СВ 3 8000 м дым ясно +17.1 +15.2 89 +17 +17 1014.0 1003.8
С 3 15 км ясно +17.2 +15.2 88 +17 +17 1013.4 1003.3
СВ 4 15 км ясно +21.8 +15.5 67 +25 +28 комфорт 1014.6 1004.4 +15.5 +23.6
С 6 15 км ясно +31.7 +13.1 32 +33 +39 жарко 1014.2 1004.1
С 4 8000 м дым ясно +34.2 +11.4 25 +34 +42 очень
жарко
1010.5 1000.5
СВ 3 5000 м дым ясно +32.6 +13.7 32 +34 +35 очень
жарко
1009.1 999.0
В 3 6000 м дым ясно +24.4 +15.6 58 +27 +27 жарко 1010.4 1000.2 +21.8 +35.0
В 3 15 км ясно +21.3 +17.3 78 +25 +25 комфорт 1011.4 1001.3
СВ 3 6000 м дым ясно +21.4 +19.5 89 +26 +26 душно 1010.9 1000.9
С 4 5000 м дым ясно +23.0 +21.5 91 +31 +31 очень
душно
1010.9 1000.9
С 5 5000 м дым 8/0
[Ac As]
+26.2 +17.0 57 +30 +31 душно 1011.8 1001.7 +20.6 +26.2
С 8 6000 м дым 6/0
[Ac As]
+33.8 +15.5 33 +36 +37 очень
душно
1010.9 1000.8
С 6 6000 м дым ясно +35.8 +14.9 29 +37 +42 душно 1008.9 998.9
С 4 15 км ясно +34.4 +14.6 31 +36 +37 душно 1007.2 997.2
СВ 3 15 км ясно +26.3 +18.0 60 +31 +31 душно 1009.2 999.0 +26.2 +36.1
СВ 4 2000 м дым ясно +24.0 +17.3 66 +28 +28 душно 1008.5 998.5
СВ 4 2500 м дым ясно +22.7 +15.8 65 +27 +27 душно 1008.2 998.2
СВ 4 4500 м дым ясно +21.2 +14.5 66 +24 +24 комфорт 1007.6 997.6
С 3 5000 м дым 10/0
[Ac As Cs]
+24.0 +14.3 55 +27 +28 жарко 1009.3 999.2 +20.2 +26.3
С 5 8000 м дым 4/0
[Ac cast Ci sp]
+30.6 +13.9 36 +32 +39 жарко 1010.2 1000.1
Ю 4 6000 м дым 10/0
[Ac cast Cs]
+31.8 +12.3 30 +32 +37 жарко 1009.7 999.7
ЮВ 5 5000 м дым 10/0 1500 м
[As op]
+28.8 +20.4 60 +35 +35 очень
душно
1010.9 1000.8
В 4 15 км 10/0 1500 м
[As op]
+25.2 +16.9 60 +29 +29 душно 1012.0 1001.8 +24.0 +34.0
ЮЗ 6 15 км 9/5 600 м
[St Ac As]
+22.5 +18.9 80 +28 +28 душно 1013.2 1003.2
Ю 4 15 км 10/0 1500 м
[As op]
+21.4 +19.2 87 +26 +26 душно 1013.8 1003.7
Ю 3 15 км 10/8 540 м
[Frnb As op]
+22.0 +19.7 87 +28 +28 душно 1013.3 1003.2
Ю 4 15 км 10/0 1500 м
[As op]
+21.2 +19.3 89 +26 +26 душно 1015.3 1005.2 +20.5 +25.2
СВ 1 5000 м слаб. дождь 10/8 540 м
[Frnb As op]
+21.7 +19.0 85 +27 +27 душно 1016.1 1005.8
В 1 5000 м слаб. дождь туман 10/8 210 м
[St As op]
+21.8 +20.3 91 +28 +28 душно 1014.8 1004.5 6
В 1 10 км слаб. дождь туман 10/3 300 м
[St As op]
+21.5 +19.5 88 +26 +27 душно 1013.4 1003.2
СВ 3 5000 м в посл. час дождь туман 10/5 300 м
[St As op]
+20.1 +19.0 93 +24 +24 комфорт 1012.6 1002.2 +20.1 +22.5 8
ЮЗ 2 4000 м гроза, ливневой дождь {морось} 10/8 750 м
[Cb cap As op]
+20.2 +19.3 95 +25 +25 комфорт 1011.7 1001.4
З 1 5000 м слаб. морось {гроза} туман 10/8 750 м
[Cb cap As op]
+20.0 +19.1 95 +25 +25 комфорт 1011.4 1001.2 2
СВ 2 4000 м гроза, ливневой дождь 10/8 600 м
[Cb cap As op]
+19.9 +18.8 93 +24 +24 комфорт 1011.7 1001.4
В 3 4000 м гроза, ливневой дождь 10/6 600 м
[Cb cap As op]
+19.5 +18.2 92 +22 +22 комфорт 1013.5 1003.2 +19.2 +20.5 10
В 4 3000 м слаб. дождь {гроза} 10/6 600 м
[Sc As op]
+19.4 +18.4 94 +22 +23 комфорт 1013.3 1002.9
В 4 2000 м дождь {гроза} 10/8 210 м
[St As op]
+18.8 +17.8 94 +20 +20 1012.3 1002.0 22
В 2 6000 м слаб. морось {дождь} 10/5 300 м
[St As op]
+19.5 +18.2 92 +22 +23 комфорт 1011.1 1000.8
СВ 2 6000 м дымка {дождь} 10/4 300 м
[St As op]
+19.4 +18.4 94 +22 +22 комфорт 1011.3 1001.0 +18.7 +19.8 2
СВ 1 6000 м дымка 10/6 450 м
[St As op]
+19.5 +18.5 94 +23 +23 комфорт 1011.8 1001.4
СВ 2 6000 м дымка 10/6 540 м
[St As op]
+19.5 +18.5 94 +23 +23 комфорт 1011.5 1001.2
В 1 6000 м дымка 10/0 1200 м
[As op]
+19.2 +18.2 94 +22 +22 комфорт 1010.8 1000.5
С 2 3000 м дымка 10/10 300 м
[St]
+21.0 +20.1 95 +27 +27 душно 1012.3 1002.1 +18.0 +21.0 24
С 3 6000 м дымка туман 10/8 450 м
[Sc Ac As]
+23.6 +20.1 81 +29 +30 душно 1012.8 1002.5
В 2 8000 м дымка 10/4 600 м
[Sc Ac As]
+25.0 +21.1 79 +32 +34 очень
душно
1010.2 1000.0
СВ 3 15 км 4/0
[Ac As]
+25.0 +19.1 70 +30 +31 душно 1009.3 999.0
СВ 2 15 км ясно +21.4 +19.9 91 +26 +26 душно 1009.9 999.6
В 1 500 м туман ясно +19.3 +18.2 93 +22 +22 комфорт 1012.3 1002.0
Местоположение метеостанции Серес (Аргентина): широта -29.88 долгота -61.95 высота над уровнем моря 88 м.
В архиве по умолчанию представлена погода в Сересе за последнюю неделю. Архивные данные за месяц целиком и за предыдущие месяцы, начиная с января 2011 года, Вы можете получить, выбрав интересующий диапазон дат из раскрывающегося списка и нажав кнопку "Найти!".
*Определитесь, кто Вы:
Внимание! Время в таблицах - всемирное. Для получения местного времени необходимо прибавить поправку, которая равна -3 ч.
Смотрите также архив погоды в соседних городах и на ближайших метеорологических станциях:
Партнеры нашего сайта:      
Пояснения к столбцам:
  • Ветер - указаны скорость ветра в м/с - средняя за 10 мин, порывы в срок и между сроками (в фигурных скобках) и направление, откуда дует ветер: С - северный,
  • СВ - северо-восточный, В - восточный, ЮВ - юго-восточный, Ю - южный, ЮЗ - юго-западный, З - западный, СЗ - северо-западный.
  • Видимость - горизонтальная дальность видимости в метрах или километрах. При видимости от 1 до 10 км при отсутствии осадков обычно наблюдается дымка, при ухудшении видимости до 1 км и менее - туман. В сухую погоду видимость может ухудшаться дымом, пылью или мглою.
  • Явления - указаны атмосферные явления, наблюдавшиеся в срок или в последний час перед сроком; фигурными скобками обозначены явления, наблюдавшиеся между сроками (за 1-3 часа до срока); квадратными скобками обозначены град или гололедные отложения с указанием их диаметра в мм.
  • Облачность - указаны через наклонную черту общая и нижняя облачность в баллах и высота нижней границы облаков в метрах; квадратными скобками обозначены формы облаков: Ci - перистые, Cs - перисто-слоистые, Cc - перисто-кучевые, Ac - высококучевые, As - высокослоистые, Sc - слоисто-кучевые, Ns - слоисто-дождевые, Cu - кучевые, Cb - кучево-дождевые. Подробнее классификацию облаков см. в Атласе облаков (PDF).
  • T - Температура воздуха - температура, измеренная на высоте 2 м над землей.
  • Td - Температура точки росы - температура, при понижении до которой содержащийся в воздухе водяной пар достигнет насыщения.
  • f - Относительная влажность воздуха - влажноcть воздуха, измеренная на высоте 2 м над землей.
  • Te - Эффективная температура - температура, которую ощущает одетый по сезону человек в тени. Характеристика душности погоды. При расчете учитывается влияние влажности воздуха и скорости ветра на теплоощущения человека.
  • Tes - Эффективная температура на солнце - температура, которую ощущает человек, с поправкой на солнечный нагрев. Характеристика знойности погоды. Зависит от высоты солнца над горизонтом, облачности и скорости ветра. Ночью, в пасмурную погоду, а также при ветре 12 м/с и более поправка равна нулю.
  • P - Атмосферное давление - приведенное к уровню моря атмосферное давление.
  • Po - Атмосферное давление - измеренное на уровне метеостанции атмосферное давление.
  • Tmin - Минимальная температура - минимум температуры воздуха на высоте 2 м над землей.
  • Tmax - Максимальная температура - максимум температуры воздуха на высоте 2 м над землей.
  • R - Количество осадков - Количество выпавших осадков за период времени, мм. При наведении курсора мыши на число - период времени, за который выпало указанное количество осадков.
  • R24 - Количество осадков - Количество выпавших осадков за 24 часа, мм.
  • S - Снежный покров - Высота снежного покрова, см. При наведении курсора мыши на число - состояние снежного покрова и степень покрытия местности в баллах.